Simultaneous Nadir Overpasses (SNOs) Predictions

Prediction of SNOs between GOES-14 and NOAA-20 Satellite Orbit:

Table of predicted SNOs for the next 14.0 days since TLE Epoch: 4/17/2021
Index Date Time (GOES-14) GOES-14 Lat,Lon NOAA-20 Lat,Lon Distance(km) Time Diff (sec)
1 04/17/2021 20:20:55 -0.15,-104.31 -0.16,-104.30 1.27 80
2 04/20/2021 08:23:59 0.15,-104.26 0.35,-105.04 88.97 80
3 04/21/2021 08:07:55 0.16,-104.27 -0.71,-100.52 427.46 80
4 04/22/2021 20:29:52 -0.16,-104.30 -0.52,-105.82 174.05 80
5 04/23/2021 20:08:28 -0.16,-104.29 0.54,-101.30 340.88 80
6 04/25/2021 08:30:16 0.16,-104.23 0.71,-106.56 266.28 80
7 04/26/2021 08:14:12 0.16,-104.23 -0.35,-102.04 250.14 80
8 04/27/2021 20:36:09 -0.15,-104.29 -0.81,-107.36 348.90 80
9 04/28/2021 20:14:45 -0.15,-104.28 0.19,-102.83 165.82 80
10 04/30/2021 08:36:33 0.15,-104.19 0.99,-108.10 444.49 80
